Location: Acheville
(50.3840°N, 2.8827°E)
Time: 18:31:04
(UTC+00:00)

CZ-2D R/B - Pass Details

Date: 24 October 2021
Orbit: 519 x 537 km, 97.4° (Epoch: 07 December)

Event Time Altitude Azimuth Distance (km) Brightness Sun altitude
Rises 17:16:52 0° 158° (SSE) 2,668 6.7 -6.7°
Reaches altitude 10° 17:18:58 10° 155° (SSE) 1,785 5.8 -7.1°
Maximum altitude 17:22:47 65° 73° (ENE) 595 3.2 -7.7°
Drops below altitude 10° 17:26:40 10° 352° (N) 1,807 6.0 -8.3°
Sets 17:28:48 0° 350° (N) 2,705 6.9 -8.6°
